sat.trackr.live / text

‹ back to catalog

GALAXY 19 (G-19)

NORAD 33376 · 2008-045A

PAYLOAD ACTIVE UNKNOWN

§ Identity

Operator
Country
US
Launch date
2008-09-24
Launch site
SEAL
Launch vehicle
Mass (kg)
RCS (m²)
15.87

Purposes: comms

External: N2YO · Heavens-Above · Gunter

§ Orbital elements

Epoch: 2026-05-25T00:18:38.563776Z

Period
1,436.08 min
Inclination
0.0471°
Eccentricity
0.0002913
Mean motion
1.00273196 rev/d
Perigee alt
35,773.9 km
Apogee alt
35,798.5 km
Semi-major
42,164.3 km
B*
0.0000e+0
RAAN
104.5742°
Arg perigee
326.5315°
Mean anomaly
79.1700°
Rev number
6,467

§ Raw data

GALAXY 19 (G-19)1 33376U 08045A   26145.01294634 -.00000142  00000+0  00000+0 0  99922 33376   0.0471 104.5742 0002913 326.5315  79.1700  1.00273196 64675

JSON: /api/v1/satellites/33376 · /tle

For live sub-satellite position, see the globe view (requires WebGL).

§ Visibility from observer

Set your observer location to see the next 7 days of passes ≥ 10°. The values pass through the URL so the page stays shareable.

No JS? Fill the form by hand. The geolocation button needs JavaScript.